Home > Time Zones > World Clock > Weather > Spain > Palma > Past weeks

Flag for Spain Weather past 2 weeks in Palma, Majorca, Spain

Now
52 °F

Mostly cloudy.


Feels Like: 52 °F
Forecast: 45 / 58 °F
Wind: No wind

Location: Palma De Mallorca / Son San Juan

Current Time: Feb 27, 2015 at 1:53:25 AM

Latest Report: Feb 27, 2015 at 1:30 AM


Visibility: 6 mi

Pressure: 30.04 "Hg

Humidity: 94%

Dew point: 50 °F

Location of PalmaLocation

Historic Weather in Palma — Graph

°F

Palma temperature yesterday

Maximum temperature yesterday: 57 °F (at 8:30 AM)
Minimum temperature yesterday: 50 °F (at 3:00 AM)
Average temperature yesterday: 54 °F

Past Weeks' High & Low Weather Summary

 TemperatureHumidityPressure
High64 °F (Feb 15, 4:00 PM)100% (Feb 12, 12:00 AM)30.45 "Hg (Feb 12, 12:00 AM)
Low32 °F (Feb 23, 1:30 AM)38% (Feb 22, 5:30 PM)29.56 "Hg (Feb 21, 5:30 PM)
Average51 °F78%30.05 "Hg
* Reported Midnight between Feb 11 and Feb 12 — Feb 27 12:30 AM, Palma, Weather by CustomWeather, © 2015

Note: Actual official high and low records may vary slightly from our data, if they occured in-between our weather recording intervals... More about our weather records

Advertising

Palma weather history for previous 24 hours

 ConditionsComfort  
Time TempWeatherWind HumidityBarometerVisibility
12:30 AM
Fri, Feb 27
52 °FMostly cloudy.No wind94%30.04 "HgN/A
12:00 AM52 °FMostly cloudy.1 mph100%30.04 "HgN/A
11:30 PM
Thu, Feb 26
52 °FMostly cloudy.No wind100%30.07 "HgN/A
11:00 PM52 °FPassing clouds.2 mph100%30.07 "HgN/A
10:30 PM52 °FMostly cloudy.No wind100%30.07 "HgN/A
10:00 PM52 °FLight rain. Mostly cloudy.No wind94%30.07 "HgN/A
9:30 PM52 °FMostly cloudy.1 mph100%30.07 "HgN/A
9:00 PM52 °FPassing clouds.1 mph100%30.07 "HgN/A
8:30 PM54 °FPassing clouds.1 mph94%30.07 "HgN/A
8:00 PM54 °FPassing clouds.1 mph88%30.07 "HgN/A
7:30 PM54 °FPassing clouds.No wind88%30.07 "HgN/A
7:00 PM54 °FPassing clouds.1 mph94%30.07 "HgN/A
6:30 PM54 °FPartly sunny.No wind88%30.07 "HgN/A
6:00 PM55 °FPartly sunny.2 mph88%30.07 "HgN/A
5:30 PM55 °FPartly sunny.No wind82%30.07 "HgN/A
5:00 PM55 °FPartly sunny.No wind82%30.07 "HgN/A
4:30 PM57 °FPartly sunny.1 mph77%30.07 "HgN/A
4:00 PM57 °FPartly sunny.2 mph77%30.07 "HgN/A
3:30 PM57 °FPartly sunny.3 mph77%30.07 "HgN/A
3:00 PM57 °FLight rain. Partly sunny.3 mph82%30.07 "HgN/A
2:30 PM55 °FLight rain. Partly sunny.7 mph82%30.09 "HgN/A
2:00 PM57 °FPartly sunny.3 mph77%30.09 "HgN/A
1:30 PM57 °FLight rain. Partly sunny.5 mph77%30.09 "HgN/A
1:00 PM57 °FPartly sunny.1 mph77%30.09 "HgN/A
12:30 PM57 °FLight rain. Partly sunny.9 mph77%30.12 "HgN/A
12:00 PM57 °FLight rain. Partly sunny.13 mph72%30.12 "HgN/A
11:30 AM57 °FLight rain. Partly sunny.6 mph72%30.12 "HgN/A
11:00 AM57 °FPartly sunny.8 mph72%30.12 "HgN/A
10:30 AM55 °FPartly sunny.9 mph77%30.09 "HgN/A
10:00 AM55 °FLight rain. Partly sunny.9 mph77%30.09 "HgN/A
9:30 AM54 °FLight rain. Partly sunny.14 mph82%30.09 "HgN/A
9:00 AM55 °FRain. Partly sunny.16 mph77%30.09 "HgN/A
8:30 AM57 °FPartly sunny.9 mph63%30.07 "HgN/A
8:00 AM54 °FLight rain. Partly sunny.8 mph77%30.07 "HgN/A
7:00 AM54 °FLight rain. Passing clouds.7 mph77%30.07 "HgN/A
6:30 AM54 °FPassing clouds.7 mph77%30.07 "HgN/A
6:00 AM52 °FPassing clouds.5 mph82%30.07 "HgN/A
5:30 AM50 °FPassing clouds.3 mph88%30.04 "HgN/A
5:00 AM52 °FPassing clouds.2 mph82%30.04 "HgN/A
4:30 AM50 °FPassing clouds.1 mph94%30.04 "HgN/A
4:00 AM50 °FPassing clouds.No wind88%30.04 "HgN/A
3:30 AM50 °FPassing clouds.No wind88%30.04 "HgN/A
3:00 AM50 °FPassing clouds.No wind88%30.04 "HgN/A
2:30 AM52 °FPassing clouds.1 mph82%30.04 "HgN/A
2:00 AM52 °FPassing clouds.No wind82%30.04 "HgN/A
1:30 AM52 °FPassing clouds.1 mph82%30.04 "HgN/A
1:00 AM52 °FPassing clouds.2 mph82%30.07 "HgN/A
Weather by CustomWeather, © 2015

See weather overviewHow to use our weather pages